FW9150 Weather Reports


Display with metric or nautical units.
time (UTC)temp
F
wind
direction
speed
MPH
gust
MPH
rain 1hr
in
rain 24hr
in
rain mn
in
humidity
%
barometer
mb
20260502170419 65 135 0.0 0.0 0.00 0.00 0.00 40 1019.9
20260502163422 63 164 3.0 4.0 0.00 0.00 0.00 42 1019.9
20260502162420 63 207 1.0 1.0 0.00 0.00 0.00 41 1019.9
20260502161421 62 225 2.0 4.0 0.00 0.00 0.00 43 1019.9
20260502151519 53 157 0.0 1.0 0.00 0.00 0.00 69 1019.7
20260502150521 52 157 0.0 0.0 0.00 0.00 0.00 70 1019.7
20260502130722 50 157 0.0 0.0 0.00 0.00 0.00 66 1018.9
20260502122821 50 157 0.0 0.0 0.00 0.00 0.00 66 1018.9
20260502121820 50 157 0.0 0.0 0.00 0.00 0.00 67 1018.9
20260502120821 50 157 0.0 0.0 0.00 0.00 0.00 68 1019.1
20260502115821 50 157 0.0 0.0 0.00 0.00 0.00 69 1019.0
20260502114820 50 157 0.0 0.0 0.00 0.00 0.00 70 1019.2
20260502113919 50 157 0.0 0.0 0.00 0.00 0.00 71 1019.2
20260502112920 50 157 0.0 0.0 0.00 0.00 0.00 72 1019.2
20260502111922 50 157 0.0 0.0 0.00 0.00 0.00 73 1019.3
20260502111020 50 157 0.0 0.0 0.00 0.00 0.00 73 1019.3
20260502110119 50 157 0.0 0.0 0.00 0.00 0.00 74 1019.4
20260502105120 50 157 0.0 0.0 0.00 0.00 0.00 74 1019.4
20260502104122 50 157 0.0 0.0 0.00 0.00 0.00 75 1019.3
20260502103219 50 157 0.0 0.0 0.00 0.00 0.00 76 1019.4
20260502101223 50 157 0.0 0.0 0.00 0.00 0.00 77 1019.3
20260502100220 50 157 0.0 0.0 0.00 0.00 0.00 78 1019.3
20260502091420 50 157 0.0 0.0 0.00 0.00 0.00 78 1019.7
20260502070820 50 157 0.0 0.0 0.00 0.00 0.00 79 1020.0
20260502065829 50 157 0.0 0.0 0.00 0.00 0.00 78 1020.3
20260502064829 50 157 0.0 0.0 0.00 0.00 0.00 78 1020.3
20260502063928 50 157 0.0 0.0 0.00 0.00 0.00 78 1020.3
20260502062929 50 157 0.0 0.0 0.00 0.00 0.00 79 1020.3
20260502060930 50 157 0.0 0.0 0.00 0.00 0.00 77 1020.5
20260502055929 50 157 0.0 0.0 0.00 0.00 0.00 77 1020.5
20260502054931 50 157 0.0 0.0 0.00 0.00 0.00 77 1020.5
20260502051931 51 157 0.0 0.0 0.00 0.00 0.00 76 1020.6
20260502050028 51 157 0.0 0.0 0.00 0.00 0.00 75 1020.6
20260502045029 51 157 0.0 0.0 0.00 0.00 0.00 75 1020.6
20260502043029 52 157 0.0 0.0 0.00 0.00 0.00 73 1020.6
20260502042029 52 157 0.0 0.0 0.00 0.00 0.00 74 1020.5
20260502041128 52 157 0.0 0.0 0.00 0.00 0.00 74 1020.5
20260502040129 53 157 0.0 0.0 0.00 0.00 0.00 73 1020.3
20260502033230 55 157 0.0 0.0 0.00 0.00 0.00 72 1020.0
20260502032229 55 157 0.0 0.0 0.00 0.00 0.00 70 1020.0
20260502031229 56 157 0.0 0.0 0.00 0.00 0.00 68 1020.1
20260502030229 56 157 0.0 0.0 0.00 0.00 0.00 67 1020.0
20260502025231 57 157 0.0 0.0 0.00 0.00 0.00 66 1019.9
20260502024228 58 157 0.0 0.0 0.00 0.00 0.00 65 1019.9
20260502023229 58 157 0.0 0.0 0.00 0.00 0.00 61 1020.0
20260502022229 59 157 0.0 0.0 0.00 0.00 0.00 59 1019.8
20260502021229 59 157 0.0 0.0 0.00 0.00 0.00 57 1019.9
20260502015228 60 157 0.0 0.0 0.00 0.00 0.00 55 1020.0
20260502014229 61 157 0.0 0.0 0.00 0.00 0.00 55 1020.0
20260502013229 61 157 0.0 0.0 0.00 0.00 0.00 55 1019.9
20260502012230 62 157 0.0 1.0 0.00 0.00 0.00 55 1020.0
20260502011327 62 157 0.0 1.0 0.00 0.00 0.00 57 1020.0
20260502010330 62 168 2.0 3.0 0.00 0.00 0.00 57 1020.0
20260502005429 63 157 2.0 4.0 0.00 0.00 0.00 56 1020.0
20260502004429 63 135 0.0 0.0 0.00 0.00 0.00 56 1020.0
20260502003429 63 165 1.0 3.0 0.00 0.00 0.00 56 1020.0
20260502002430 64 193 0.0 2.0 0.00 0.00 0.00 53 1019.9
20260502001445 64 172 0.0 1.0 0.00 0.00 0.00 54 1019.9
20260502000446 64 135 0.0 0.0 0.00 0.00 0.00 54 1020.0
20260501235528 65 246 0.0 1.0 0.00 0.00 0.00 54 1020.0
20260501234530 65 135 0.0 0.0 0.00 0.00 0.00 54 1019.9
20260501233546 65 225 0.0 0.0 0.00 0.00 0.00 55 1020.0
20260501232629 65 67 0.0 0.0 0.00 0.00 0.00 55 1019.9
20260501231630 65 157 1.0 3.0 0.00 0.00 0.00 56 1019.9
20260501230630 65 138 0.0 3.0 0.00 0.00 0.00 55 1020.0
20260501225629 65 190 0.0 5.0 0.00 0.00 0.00 56 1020.1
20260501224628 65 326 0.0 0.0 0.00 0.00 0.00 55 1020.1
20260501223628 65 200 1.0 2.0 0.00 0.00 0.00 55 1020.3
20260501222629 65 267 0.0 2.0 0.00 0.00 0.00 53 1020.4
20260501221629 66 215 0.0 0.0 0.00 0.00 0.00 51 1020.6
20260501220631 67 162 1.0 4.0 0.00 0.00 0.00 51 1020.5
20260501215630 67 161 1.0 3.0 0.00 0.00 0.00 50 1020.5
20260501214728 67 165 2.0 4.0 0.00 0.00 0.00 50 1020.6
20260501212730 66 180 0.0 1.0 0.00 0.00 0.00 50 1020.9
20260501211829 66 76 0.0 1.0 0.00 0.00 0.00 49 1020.8
20260501210829 66 188 0.0 2.0 0.00 0.00 0.00 47 1020.9
20260501205829 68 315 0.0 0.0 0.00 0.00 0.00 45 1020.7
20260501204830 69 222 1.0 2.0 0.00 0.00 0.00 41 1020.6
20260501203829 70 199 0.0 2.0 0.00 0.00 0.00 35 1020.6
20260501203729 70 157 0.0 2.0 0.00 0.00 0.00 36 1020.7
20260501202729 70 182 1.0 5.0 0.00 0.00 0.00 36 1020.7
20260501201729 68 157 0.0 3.0 0.00 0.00 0.00 36 1020.7
20260501200828 69 221 1.0 3.0 0.00 0.00 0.00 35 1020.9
20260501195831 69 325 0.0 0.0 0.00 0.00 0.00 33 1020.8
20260501194829 69 179 1.0 3.0 0.00 0.00 0.00 33 1021.1
20260501193828 69 157 0.0 0.0 0.00 0.00 0.00 33 1021.0
20260501192928 70 157 0.0 1.0 0.00 0.00 0.00 31 1020.9
20260501191929 71 254 0.0 1.0 0.00 0.00 0.00 30 1021.1
20260501190929 71 162 2.0 3.0 0.00 0.00 0.00 28 1021.1
20260501185931 72 157 0.0 3.0 0.00 0.00 0.00 27 1021.3
20260501184934 72 180 0.0 2.0 0.00 0.00 0.00 26 1021.3
20260501184030 72 57 0.0 1.0 0.00 0.00 0.00 27 1021.3
20260501183029 72 292 0.0 1.0 0.00 0.00 0.00 27 1021.3
20260501181029 72 31 0.0 0.0 0.00 0.00 0.00 26 1021.5
20260501180028 70 157 0.0 0.0 0.00 0.00 0.00 24 1021.5
20260501175029 70 49 0.0 4.0 0.00 0.00 0.00 24 1021.5
20260501174030 71 28 1.0 3.0 0.00 0.00 0.00 24 1021.4
20260501173129 71 157 0.0 2.0 0.00 0.00 0.00 25 1021.3